Regional Weather Roundup
Issued by NWS

Home | Current Version | Previous Version | Graphics & Text | Print | Product List | Glossary On
Versions: 1 2 3 4 5 6 7 8 9 10 11 12 13 14 15 16 17 18 19 20 21 22 23 24 25 26 27 28 29 30 31 32 33 34 35 36 37 38 39 40 41 42 43 44 45 46 47 48 49 50
000
ASUS45 KPSR 161800
RWRAZ

PRELIMINARY ARIZONA REGIONAL HOURLY WEATHER ROUNDUP
NATIONAL WEATHER SERVICE PHOENIX AZ
1100 AM MST TUE SEP 16 2014

NOTE: FAIR INDICATES FEW OR NO CLOUDS BELOW 12,000 FEET WITH NO
SIGNIFICANT WEATHER AND/OR OBSTRUCTIONS TO VISIBILITY.

AZZ001>003-036-161900-
NORTHWEST ARIZONA

CITY           SKY/WX    TMP DP  RH WIND       PRES   REMARKS
KINGMAN        SUNNY     85  61  44 SW10      30.07F
6HR MIN TEMP:  69; 6HR MAX TEMP:  86;

$$

AZZ004>008-015-016-018-161900-
NORTH CENTRAL ARIZONA

CITY           SKY/WX    TMP DP  RH WIND       PRES   REMARKS
GRAND CANYON   SUNNY     76  47  35 CALM      30.30F
6HR MIN TEMP:  44; 6HR MAX TEMP:  76;

PRESCOTT       MOSUNNY   78  58  49 E10       30.19F
6HR MIN TEMP:  57; 6HR MAX TEMP:  78;

FLAGSTAFF      PTSUNNY   70  50  49 CALM      30.33F
6HR MIN TEMP:  47; 6HR MAX TEMP:  71;

PAYSON         PTSUNNY   75  57  53 VRB3G12   30.23F
PAGE           SUNNY     84  50  30 NE5       30.15F
6HR MIN TEMP:  72; 6HR MAX TEMP:  84;

$$

AZZ009>014-017-161900-
NORTHEAST ARIZONA

CITY           SKY/WX    TMP DP  RH WIND       PRES   REMARKS
WINSLOW        NOT AVBL
SAINT JOHNS    CLOUDY    74  53  48 VRB3      30.24F
6HR MIN TEMP:  63; 6HR MAX TEMP:  75;

WINDOW ROCK    CLOUDY    73  51  46 S7        30.34
6HR MIN TEMP:  54; 6HR MAX TEMP:  73;

$$

AZZ023-161900-
GREATER PHOENIX AREA

CITY           SKY/WX    TMP DP  RH WIND       PRES   REMARKS
PHOENIX        CLOUDY    91  62  37 SE15G25   29.93S
6HR MIN TEMP:  83; 6HR MAX TEMP:  92; 6HR PCP:  0.01;

GLENDALE       PTSUNNY   90  66  45 NE8       29.94F
DEER VALLEY    CLOUDY    87  63  44 E5        29.95F
6HR MIN TEMP:  83; 6HR MAX TEMP:  87;

SCOTTSDALE     CLOUDY    89  65  44 S5        29.96F
6HR MIN TEMP:  83; 6HR MAX TEMP:  89;

MESA-GATEWAY   PTSUNNY   84  64  51 S12       29.98S
CHANDLER       PTSUNNY   84  66  54 S17G25    29.96S
$$

AZZ027-028-161900-
SOUTHWEST MARICOPA COUNTY AND PINAL COUNTY

CITY           SKY/WX    TMP DP  RH WIND       PRES   REMARKS
CASA GRANDE    CLOUDY    79  66  65 SE8       29.99S
6HR MIN TEMP:  79; 6HR MAX TEMP:  84;

GILA BEND      LGT RAIN  82  73  74 SE9       29.93R
                                      6HR PCP:  0.10;

$$

AZZ503-504-507>509-161900-
SOUTHEAST ARIZONA

CITY           SKY/WX    TMP DP  RH WIND       PRES   REMARKS
TUCSON         CLOUDY    78  65  63 E6        30.04F
6HR MIN TEMP:  72; 6HR MAX TEMP:  78; 6HR PCP:  0.08;

NOGALES        CLOUDY    73  63  70 NE9       30.07F
6HR MIN TEMP:  65; 6HR MAX TEMP:  74; 6HR PCP:  0.01;

SIERRA VISTA   CLOUDY    66  64  94 NE7       30.15F
                                      6HR PCP:  0.01;

SAFFORD        LGT RAIN  71  67  87 S6        30.11F
6HR MIN TEMP:  69; 6HR MAX TEMP:  74; 6HR PCP:  0.09;

$$

AZZ020-021-025-026-031-161900-
SOUTHWEST ARIZONA

CITY           SKY/WX    TMP DP  RH WIND       PRES   REMARKS
YUMA           PTSUNNY   96  62  32 E7        29.83F
6HR MIN TEMP:  86; 6HR MAX TEMP:  96;

$$

CAZ031-033-041-043-047-048-061-161900-
SOUTHERN CALIFORNIA

CITY           SKY/WX    TMP DP  RH WIND       PRES   REMARKS
DOWNTOWN L.A.  SUNNY     99  60  27 CALM      29.75F
6HR MIN TEMP:  76; 6HR MAX TEMP:  99;

L.A. AIRPORT   MOSUNNY   89  64  43 W8        29.76F
6HR MIN TEMP:  74; 6HR MAX TEMP:  90;

SAN DIEGO      MOSUNNY   87  65  47 NW6       29.77F
6HR MIN TEMP:  76; 6HR MAX TEMP:  88;

BURBANK        SUNNY     97  51  21 CALM      29.79F
6HR MIN TEMP:  78; 6HR MAX TEMP:  97;

ONTARIO        MOSUNNY   97  61  30 VRB3      29.80F
6HR MIN TEMP:  77; 6HR MAX TEMP:  97;

RIVERSIDE      SUNNY     99  65  32 SE12      29.80F HX 102
6HR MIN TEMP:  75; 6HR MAX TEMP: 100;

PALM SPRINGS   MOSUNNY   94  69  44 E7        29.87F
6HR MIN TEMP:  87; 6HR MAX TEMP:  94;

EL CENTRO NAS  MOSUNNY   96  70  42 SE10      29.80F HX 102
6HR MIN TEMP:  84; 6HR MAX TEMP:  96;

IMPERIAL       SUNNY     95  71  45 SE8       29.80F HX 102
6HR MIN TEMP:  86; 6HR MAX TEMP:  95;

BLYTHE         SUNNY     95  69  42 VRB6      29.85F HX 100
6HR MIN TEMP:  85; 6HR MAX TEMP:  95;

$$

NVZ020-UTZ003-161900-
SOUTHERN NEVADA-UTAH

CITY           SKY/WX    TMP DP  RH WIND       PRES   REMARKS
LAS VEGAS      NOT AVBL
SALT LAKE CITY PTSUNNY   85  39  19 S12       30.07F
6HR MIN TEMP:  61; 6HR MAX TEMP:  85; 6HR PCP: TRACE;

$$

NMZ009-TXZ055-161900-
NEW MEXICO-WEST TEXAS

CITY           SKY/WX    TMP DP  RH WIND       PRES   REMARKS
ALBUQUERQUE    CLOUDY    70  58  65 W7        30.30F
6HR MIN TEMP:  64; 6HR MAX TEMP:  70;

EL PASO        CLOUDY    72  65  78 N8        30.19F
6HR MIN TEMP:  65; 6HR MAX TEMP:  72; 6HR PCP:  0.20;

$$


........................KEY........................
SKY/WX - SKY CONDITION/WEATHER
TMP    - TEMPERATURE IN FAHRENHEIT
DP     - DEW POINT IN FAHRENHEIT
RH     - RELATIVE HUMIDITY IN PERCENT
WIND   - DIRECTION AND SPEED IN MILES PER HOUR (MPH)
VRB    - VARIABLE WIND DIRECTION
PRES   - MEAN SEA LEVEL PRESSURE IN INCHES OF MERCURY
         F - FALLING PRESSURE   R - RISING PRESSURE
         S - STEADY PRESSURE
VSB    - VISIBILITY IN MILES
HX     - HEAT INDEX IN FAHRENHEIT
WCI    - WIND CHILL INDEX IN FAHRENHEIT
TC     - TEMPERATURE IN CELSIUS WHICH IS ALSO KNOWN AS
         TEMPERATURE IN CENTIGRADE
AFB    - AIR FORCE BASE
         LUKE AFB IS LUKE AIR FORCE BASE
         DAVIS-MONTHAN IS DAVIS-MONTHAN AIR FORCE BASE
NAS    - NAVAL AIR STATION
         EL CENTRO NAS IS EL CENTRO NAVAL AIR STATION
N/A    - NOT AVAILABLE


USA.gov is the U.S. government's official web portal to all federal, state and local government web resources and services.